Hourly Weather La-Plata

Today, 23 September, Wednesday

Time Temperature Precipitation Wind Pressure Humidity
00:00 +12°C° 0 mm 4 mps 764 mmHg 80%
01:00 +11°C° 0 mm 4 mps 764 mmHg 81%
02:00 +11°C° 0 mm 4 mps 764 mmHg 80%
03:00 +11°C° 0 mm 4 mps 764 mmHg 82%
04:00 +11°C° 0 mm 3 mps 764 mmHg 83%
05:00 +11°C° 0 mm 3 mps 764 mmHg 85%
06:00 +12°C° 0 mm 3 mps 764 mmHg 82%
07:00 +13°C° 0 mm 3 mps 765 mmHg 78%
08:00 +14°C° 0 mm 3 mps 765 mmHg 75%
09:00 +17°C° 0 mm 2 mps 765 mmHg 68%
10:00 +18°C° 0 mm 2 mps 765 mmHg 62%
11:00 +20°C° 0 mm 2 mps 765 mmHg 55%
12:00 +20°C° 0 mm 2 mps 764 mmHg 53%
13:00 +21°C° 0 mm 2 mps 764 mmHg 52%
14:00 +21°C° 0 mm 2 mps 763 mmHg 50%
15:00 +20°C° 0 mm 2 mps 763 mmHg 54%
16:00 +19°C° 0 mm 2 mps 763 mmHg 58%
17:00 +18°C° 0 mm 2 mps 763 mmHg 61%
18:00 +17°C° 0 mm 3 mps 763 mmHg 63%
19:00 +14°C° 0 mm 3 mps 763 mmHg 65%
20:00 +13°C° 0 mm 3 mps 764 mmHg 67%
21:00 +13°C° 0 mm 3 mps 764 mmHg 72%
22:00 +13°C° 0 mm 3 mps 764 mmHg 77%
23:00 +12°C° 0 mm 3 mps 764 mmHg 83%

Tomorrow, 24 September, Thursday

Time Temperature Precipitation Wind Pressure Humidity
00:00 +12°C° 0 mm 3 mps 764 mmHg 84%
01:00 +13°C° 0 mm 2 mps 763 mmHg 85%
02:00 +13°C° 0 mm 2 mps 763 mmHg 87%
03:00 +12°C° 0 mm 2 mps 763 mmHg 87%
04:00 +12°C° 0 mm 2 mps 763 mmHg 87%
05:00 +12°C° 0 mm 2 mps 763 mmHg 87%
06:00 +12°C° 0 mm 3 mps 763 mmHg 83%
07:00 +14°C° 0 mm 3 mps 764 mmHg 79%
08:00 +16°C° 0 mm 3 mps 764 mmHg 75%
09:00 +17°C° 0 mm 3 mps 763 mmHg 69%
10:00 +18°C° 0 mm 4 mps 763 mmHg 63%
11:00 +20°C° 0 mm 4 mps 763 mmHg 57%
12:00 +20°C° 0 mm 4 mps 762 mmHg 56%
13:00 +20°C° 0 mm 4 mps 762 mmHg 55%
14:00 +21°C° 0 mm 5 mps 762 mmHg 53%
15:00 +19°C° 0 mm 5 mps 761 mmHg 59%
16:00 +17°C° 0 mm 5 mps 761 mmHg 64%
17:00 +16°C° 0 mm 5 mps 761 mmHg 69%
18:00 +15°C° 0 mm 5 mps 761 mmHg 72%
19:00 +14°C° 0 mm 5 mps 761 mmHg 75%
20:00 +13°C° 0 mm 4 mps 762 mmHg 77%
21:00 +13°C° 0 mm 4 mps 762 mmHg 79%
22:00 +13°C° 0 mm 4 mps 761 mmHg 81%
23:00 +13°C° 0 mm 4 mps 761 mmHg 82%

Day after tomorrow, 25 September, Friday

Time Temperature Precipitation Wind Pressure Humidity
00:00 +13°C° 0 mm 4 mps 761 mmHg 83%
01:00 +13°C° 0 mm 4 mps 761 mmHg 84%
02:00 +13°C° 0 mm 4 mps 761 mmHg 85%
03:00 +13°C° 0 mm 4 mps 760 mmHg 87%
04:00 +13°C° 0 mm 4 mps 760 mmHg 88%
05:00 +13°C° 0 mm 3 mps 760 mmHg 89%
06:00 +14°C° 0 mm 3 mps 760 mmHg 86%
07:00 +15°C° 0 mm 4 mps 760 mmHg 83%
08:00 +17°C° 0 mm 4 mps 761 mmHg 80%
09:00 +18°C° 0 mm 4 mps 760 mmHg 77%
10:00 +19°C° 0 mm 4 mps 760 mmHg 74%
11:00 +20°C° 0 mm 4 mps 759 mmHg 71%
12:00 +20°C° 0 mm 4 mps 759 mmHg 72%
13:00 +20°C° 0 mm 4 mps 759 mmHg 72%
14:00 +20°C° 0 mm 4 mps 758 mmHg 73%
15:00 +19°C° 0.6 mm 5 mps 758 mmHg 77%
16:00 +17°C° 0.6 mm 5 mps 758 mmHg 81%
17:00 +15°C° 0.6 mm 6 mps 757 mmHg 85%
18:00 +15°C° 0.3 mm 6 mps 758 mmHg 87%
19:00 +15°C° 0.3 mm 6 mps 758 mmHg 88%
20:00 +15°C° 0.3 mm 6 mps 758 mmHg 90%
21:00 +15°C° 0.1 mm 6 mps 758 mmHg 89%
22:00 +15°C° 0.1 mm 6 mps 758 mmHg 89%
23:00 +15°C° 0.1 mm 7 mps 758 mmHg 89%

26 September, Saturday

Time Temperature Precipitation Wind Pressure Humidity
00:00 +15°C° 0.1 mm 7 mps 757 mmHg 89%
01:00 +15°C° 0.1 mm 7 mps 757 mmHg 89%
02:00 +15°C° 0.1 mm 7 mps 757 mmHg 89%
03:00 +15°C° 0.2 mm 6 mps 756 mmHg 90%
04:00 +15°C° 0.2 mm 6 mps 756 mmHg 90%
05:00 +15°C° 0.2 mm 6 mps 756 mmHg 90%
06:00 +15°C° 0.4 mm 6 mps 756 mmHg 91%
07:00 +15°C° 0.4 mm 6 mps 755 mmHg 92%
08:00 +15°C° 0.4 mm 7 mps 755 mmHg 92%
09:00 +16°C° 0.1 mm 7 mps 755 mmHg 89%
10:00 +17°C° 0.1 mm 7 mps 754 mmHg 86%
11:00 +18°C° 0.1 mm 7 mps 754 mmHg 83%
12:00 +19°C° 0.2 mm 6 mps 753 mmHg 86%
13:00 +19°C° 0.2 mm 5 mps 753 mmHg 90%
14:00 +18°C° 0.2 mm 4 mps 752 mmHg 93%
15:00 +16°C° 1.3 mm 5 mps 752 mmHg 93%
16:00 +16°C° 1.3 mm 5 mps 752 mmHg 94%
17:00 +15°C° 1.3 mm 6 mps 751 mmHg 94%
18:00 +15°C° 0.8 mm 5 mps 751 mmHg 94%
19:00 +15°C° 0.8 mm 5 mps 751 mmHg 94%
20:00 +15°C° 0.8 mm 5 mps 751 mmHg 94%
21:00 +15°C° 0 mm 4 mps 751 mmHg 95%
22:00 +16°C° 0 mm 3 mps 751 mmHg 96%
23:00 +16°C° 0 mm 2 mps 751 mmHg 97%

27 September, Sunday

Time Temperature Precipitation Wind Pressure Humidity
00:00 +16°C° 0 mm 2 mps 751 mmHg 96%
01:00 +16°C° 0 mm 3 mps 750 mmHg 96%
02:00 +16°C° 0 mm 3 mps 750 mmHg 96%
03:00 +16°C° 0.1 mm 3 mps 750 mmHg 96%
04:00 +16°C° 0.1 mm 3 mps 750 mmHg 96%
05:00 +16°C° 0.1 mm 3 mps 750 mmHg 96%
06:00 +14°C° 0.2 mm 4 mps 750 mmHg 94%
07:00 +14°C° 0.2 mm 4 mps 750 mmHg 93%
08:00 +14°C° 0.2 mm 5 mps 750 mmHg 91%
09:00 +14°C° 0.1 mm 6 mps 751 mmHg 91%
10:00 +14°C° 0.1 mm 6 mps 751 mmHg 90%
11:00 +14°C° 0.1 mm 6 mps 751 mmHg 90%
12:00 +14°C° 0.4 mm 6 mps 752 mmHg 89%
13:00 +12°C° 0.4 mm 7 mps 752 mmHg 89%
14:00 +11°C° 0.4 mm 7 mps 753 mmHg 89%
15:00 +11°C° 0 mm 7 mps 753 mmHg 88%
16:00 +11°C° 0 mm 6 mps 754 mmHg 87%
17:00 +11°C° 0 mm 6 mps 755 mmHg 86%
18:00 +12°C° 0 mm 5 mps 755 mmHg 87%
19:00 +10°C° 0 mm 5 mps 756 mmHg 88%
20:00 +10°C° 0 mm 5 mps 756 mmHg 88%
21:00 +10°C° 0 mm 5 mps 756 mmHg 89%
22:00 +10°C° 0 mm 4 mps 756 mmHg 89%
23:00 +10°C° 0 mm 4 mps 757 mmHg 89%

28 September, Monday

Time Temperature Precipitation Wind Pressure Humidity
00:00 +10°C° 0 mm 4 mps 757 mmHg 88%
01:00 +10°C° 0 mm 4 mps 757 mmHg 86%
02:00 +10°C° 0 mm 4 mps 756 mmHg 84%
03:00 +10°C° 0 mm 4 mps 757 mmHg 84%
04:00 +8°C° 0 mm 4 mps 757 mmHg 84%
05:00 +8°C° 0 mm 4 mps 757 mmHg 83%
06:00 +10°C° 0 mm 4 mps 757 mmHg 81%
07:00 +12°C° 0 mm 4 mps 758 mmHg 78%
08:00 +13°C° 0 mm 4 mps 758 mmHg 75%
09:00 +15°C° 0 mm 4 mps 758 mmHg 68%
10:00 +18°C° 0 mm 4 mps 758 mmHg 61%
11:00 +20°C° 0 mm 4 mps 758 mmHg 53%
12:00 +21°C° 0 mm 3 mps 758 mmHg 49%
13:00 +22°C° 0 mm 3 mps 757 mmHg 45%
14:00 +22°C° 0 mm 3 mps 757 mmHg 41%
15:00 +21°C° 0 mm 2 mps 757 mmHg 45%
16:00 +20°C° 0 mm 2 mps 756 mmHg 48%
17:00 +19°C° 0 mm 2 mps 756 mmHg 52%
18:00 +18°C° 0 mm 3 mps 756 mmHg 50%
19:00 +17°C° 0 mm 3 mps 756 mmHg 48%
20:00 +14°C° 0 mm 3 mps 756 mmHg 46%
21:00 +14°C° 0 mm 3 mps 757 mmHg 51%
22:00 +14°C° 0 mm 4 mps 757 mmHg 56%
23:00 +13°C° 0 mm 4 mps 757 mmHg 60%
Show more